FW5335 Weather Reports


Display with metric or nautical units.
time (UTC)temp
F
wind
direction
speed
MPH
gust
MPH
rain 1hr
in
rain 24hr
in
rain mn
in
humidity
%
barometer
mb
20260831100540 67 270 8.0 16.0 0.00 0.20 0.01 73 1014.7
20260831095519 67 293 8.0 17.0 0.00 0.20 0.01 72 1014.8
20260831094521 67 270 8.0 19.0 0.00 0.20 0.01 70 1014.5
20260831093601 68 293 6.0 14.0 0.00 0.20 0.01 70 1014.1
20260831092559 68 270 10.0 22.0 0.00 0.20 0.01 70 1014.2
20260831091522 67 270 8.0 16.0 0.00 0.20 0.01 72 1013.9
20260831090518 67 293 9.0 16.0 0.00 0.20 0.01 73 1013.6
20260831085522 67 270 8.0 16.0 0.00 0.20 0.01 74 1013.7
20260831084522 67 270 9.0 15.0 0.00 0.20 0.01 73 1013.8
20260831083520 67 270 8.0 18.0 0.00 0.20 0.01 76 1013.3
20260831082521 66 248 7.0 14.0 0.01 0.20 0.01 76 1012.9
20260831081520 66 270 8.0 14.0 0.01 0.20 0.01 78 1012.9
20260831080520 65 270 8.0 14.0 0.01 0.20 0.01 80 1012.7
20260831075524 65 248 7.0 12.0 0.01 0.20 0.01 80 1012.5
20260831074518 65 248 7.0 12.0 0.01 0.20 0.01 81 1012.2
20260831073519 64 248 7.0 15.0 0.01 0.20 0.01 82 1012.1
20260831072518 63 248 7.0 15.0 0.00 0.19 0.00 85 1011.6
20260831071524 61 248 6.0 13.0 0.00 0.19 0.00 87 1011.7
20260831070518 61 248 7.0 12.0 0.00 0.19 0.00 88 1011.4
20260831065601 60 248 5.0 11.0 0.00 0.19 0.00 90 1011.3
20260831064519 59 248 6.0 11.0 0.00 0.19 0.00 90 1011.1
20260831063525 59 248 5.0 11.0 0.00 0.19 0.00 90 1011.1
20260831062520 58 248 6.0 12.0 0.00 0.19 0.00 90 1010.7
20260831061518 58 248 8.0 13.0 0.00 0.19 0.00 90 1010.4
20260831060517 58 248 7.0 14.0 0.00 0.19 0.00 90 1010.2
20260831055519 58 248 7.0 12.0 0.00 0.19 0.00 90 1009.9
20260831054522 58 248 7.0 13.0 0.00 0.19 0.00 90 1009.7
20260831053523 57 248 8.0 15.0 0.00 0.19 0.00 90 1009.6
20260831052520 57 225 9.0 17.0 0.00 0.19 0.00 90 1009.3
20260831051521 57 225 7.0 15.0 0.00 0.19 0.00 90 1009.2
20260831050520 57 225 8.0 14.0 0.00 0.19 0.00 90 1009.0
20260831045520 57 248 8.0 17.0 0.00 0.19 0.00 90 1008.9
20260831044518 57 225 7.0 13.0 0.00 0.19 0.00 90 1008.7
20260831043522 57 225 6.0 12.0 0.00 0.19 0.00 90 1008.7
20260831042520 57 248 8.0 14.0 0.00 0.19 0.00 90 1008.7
20260831041542 57 225 6.0 14.0 0.00 0.19 0.00 90 1008.7
20260831040518 57 225 7.0 13.0 0.00 0.19 0.00 90 1008.6
20260831035518 57 225 7.0 15.0 0.00 0.19 0.00 90 1008.4
20260831034521 57 225 7.0 12.0 0.00 0.19 0.00 90 1008.4
20260831033521 57 225 7.0 12.0 0.00 0.19 0.00 90 1008.4
20260831032544 57 225 6.0 12.0 0.00 0.19 0.00 90 1008.2
20260831031517 57 225 8.0 13.0 0.00 0.19 0.00 90 1008.0
20260831030518 57 225 7.0 14.0 0.00 0.19 0.00 90 1008.0
20260831025517 57 248 7.0 14.0 0.00 0.19 0.00 91 1008.1
20260831024519 57 225 6.0 12.0 0.00 0.19 0.00 91 1007.9
20260831023518 57 225 7.0 14.0 0.00 0.19 0.00 90 1007.8
20260831022518 57 225 6.0 10.0 0.00 0.19 0.00 90 1007.7
20260831021517 57 225 5.0 10.0 0.00 0.19 0.00 90 1007.6
20260831020518 57 225 7.0 12.0 0.00 0.19 0.00 90 1007.6
20260831015520 57 225 6.0 11.0 0.00 0.19 0.00 90 1007.4
20260831014520 57 225 8.0 14.0 0.00 0.19 0.00 90 1007.5
20260831013519 57 248 8.0 14.0 0.00 0.19 0.00 90 1007.4
20260831012519 57 225 6.0 15.0 0.00 0.19 0.00 91 1007.2
20260831011523 57 225 6.0 12.0 0.00 0.19 0.00 90 1007.3
20260831010517 57 225 6.0 10.0 0.00 0.19 0.00 90 1007.1
20260831005520 57 225 6.0 13.0 0.00 0.19 0.00 90 1007.1
20260831004518 57 225 7.0 12.0 0.00 0.19 0.00 90 1007.0
20260831003520 57 225 7.0 14.0 0.00 0.19 0.00 90 1007.1
20260831002519 57 225 7.0 14.0 0.00 0.19 0.00 90 1007.0
20260831001518 57 248 7.0 12.0 0.00 0.19 0.00 90 1006.9
20260831000519 57 225 7.0 13.0 0.00 0.19 0.00 90 1006.7
20260830235520 57 225 7.0 15.0 0.00 0.19 0.00 90 1006.4
20260830234519 57 225 6.0 12.0 0.00 0.19 0.00 90 1006.2
20260830233523 57 225 6.0 13.0 0.00 0.19 0.00 90 1006.1
20260830232519 57 225 6.0 11.0 0.00 0.19 0.00 90 1006.3
20260830231521 57 225 5.0 10.0 0.01 0.19 0.00 89 1006.2
20260830230521 58 225 5.0 10.0 0.02 0.20 0.00 89 1006.4
20260830225520 58 225 4.0 8.0 0.02 0.20 0.20 89 1006.0
20260830224521 59 225 6.0 11.0 0.02 0.20 0.20 90 1005.8
20260830223519 59 225 7.0 14.0 0.02 0.20 0.20 90 1005.7
20260830222541 59 225 8.0 17.0 0.02 0.20 0.20 90 1005.7
20260830221518 59 225 6.0 13.0 0.10 0.19 0.19 90 1005.7
20260830220519 59 225 6.0 11.0 0.13 0.18 0.18 90 1005.7
20260830215520 60 225 5.0 10.0 0.13 0.18 0.18 89 1005.7
20260830214539 60 225 6.0 12.0 0.13 0.18 0.18 89 1005.6
20260830213553 60 225 7.0 12.0 0.13 0.18 0.18 89 1005.6
20260830212518 60 225 6.0 14.0 0.12 0.17 0.17 89 1005.6
20260830211518 61 225 9.0 22.0 0.04 0.09 0.09 88 1005.5
20260830210518 61 225 6.0 10.0 0.01 0.06 0.06 87 1005.6
20260830205517 61 203 8.0 12.0 0.01 0.06 0.06 86 1005.4
20260830204538 61 203 6.0 12.0 0.01 0.06 0.06 87 1005.4
20260830203518 61 203 6.0 12.0 0.01 0.06 0.06 86 1005.5
20260830202600 61 203 9.0 18.0 0.01 0.06 0.06 85 1005.7
20260830201518 61 203 6.0 14.0 0.00 0.05 0.05 84 1005.6
20260830200521 61 203 7.0 12.0 0.00 0.05 0.05 85 1005.8
20260830195521 61 203 6.0 13.0 0.00 0.05 0.05 86 1006.1
20260830194522 61 225 6.0 11.0 0.00 0.05 0.05 86 1005.8
20260830193537 60 203 6.0 10.0 0.00 0.05 0.05 86 1005.9
20260830192517 60 203 5.0 7.0 0.00 0.05 0.05 86 1005.9
20260830191517 60 203 5.0 9.0 0.00 0.05 0.05 86 1005.9
20260830190517 61 225 5.0 9.0 0.00 0.05 0.05 86 1005.9
20260830185539 61 203 6.0 12.0 0.00 0.05 0.05 86 1006.2
20260830184520 61 203 5.0 11.0 0.00 0.05 0.05 86 1006.0
20260830183520 61 203 4.0 8.0 0.03 0.05 0.05 87 1006.2
20260830182521 62 225 4.0 8.0 0.03 0.05 0.05 86 1006.3
20260830181519 62 203 5.0 11.0 0.03 0.05 0.05 86 1006.1
20260830180540 62 225 8.0 16.0 0.03 0.05 0.05 86 1006.1
20260830175520 63 225 8.0 14.0 0.03 0.05 0.05 86 1006.1
20260830174522 63 203 9.0 20.0 0.03 0.05 0.05 84 1005.9
20260830173539 65 203 11.0 19.0 0.01 0.02 0.02 80 1006.0
20260830172520 65 203 7.0 16.0 0.01 0.02 0.02 80 1006.0
20260830171520 65 203 8.0 14.0 0.01 0.02 0.02 81 1006.1
20260830170522 64 203 10.0 18.0 0.01 0.02 0.02 83 1006.2
20260830165516 64 203 8.0 14.0 0.01 0.02 0.02 84 1006.4
20260830164518 65 203 9.0 22.0 0.01 0.02 0.02 82 1006.4
20260830163537 65 203 9.0 17.0 0.00 0.01 0.01 80 1006.5
20260830162541 66 203 8.0 14.0 0.00 0.01 0.01 79 1006.9
20260830161521 67 203 8.0 16.0 0.00 0.01 0.01 77 1007.1
20260830160524 67 203 11.0 20.0 0.00 0.01 0.01 76 1007.2
20260830155541 68 203 11.0 21.0 0.00 0.02 0.01 76 1007.2
20260830154521 68 203 10.0 21.0 0.00 0.02 0.01 78 1007.0
20260830153521 67 203 12.0 23.0 0.00 0.02 0.01 79 1007.0
20260830152523 67 203 11.0 23.0 0.00 0.02 0.01 80 1007.1
20260830151544 67 203 10.0 19.0 0.00 0.02 0.01 79 1007.1
20260830150521 67 180 7.0 16.0 0.00 0.02 0.01 79 1006.9
20260830145539 67 180 9.0 17.0 0.00 0.02 0.01 77 1007.2
20260830144525 67 203 7.0 13.0 0.00 0.02 0.01 76 1007.9
20260830143518 67 203 10.0 18.0 0.00 0.02 0.01 76 1008.0
20260830142524 67 203 8.0 15.0 0.00 0.02 0.01 76 1008.2
20260830141521 68 203 7.0 16.0 0.00 0.02 0.01 76 1008.4
20260830140527 69 248 7.0 14.0 0.00 0.02 0.01 73 1008.5
20260830135541 69 203 11.0 21.0 0.00 0.02 0.01 71 1008.4
20260830134518 69 248 12.0 25.0 0.00 0.06 0.01 69 1008.6
20260830133519 70 225 11.0 17.0 0.00 0.07 0.01 68 1008.6
20260830132522 70 203 13.0 25.0 0.00 0.07 0.01 66 1008.7
20260830131603 71 203 10.0 18.0 0.00 0.07 0.01 65 1008.4
20260830130521 73 203 12.0 20.0 0.00 0.07 0.01 63 1008.4
20260830125520 74 203 10.0 20.0 0.00 0.08 0.01 63 1008.5
20260830124522 73 180 8.0 16.0 0.00 0.12 0.01 66 1008.5
20260830123521 74 203 9.0 16.0 0.00 0.27 0.01 63 1008.6
20260830122524 74 203 12.0 22.0 0.00 0.50 0.01 63 1008.8
20260830121523 73 180 9.0 17.0 0.00 0.50 0.01 65 1008.8
20260830120521 73 203 11.0 22.0 0.00 0.50 0.01 64 1009.0
20260830115523 72 203 10.0 19.0 0.00 0.50 0.01 65 1009.1
20260830114543 72 203 10.0 17.0 0.00 0.50 0.01 62 1009.3
20260830113521 72 180 12.0 18.0 0.00 0.51 0.01 62 1009.1
20260830112519 72 203 9.0 15.0 0.00 0.51 0.01 64 1009.3
20260830111519 71 203 13.0 23.0 0.00 0.51 0.01 67 1009.5
20260830110519 70 225 10.0 19.0 0.00 0.54 0.01 70 1009.6
20260830105524 70 203 10.0 21.0 0.00 0.56 0.01 68 1009.6
20260830104520 71 203 10.0 16.0 0.00 0.57 0.01 69 1009.6
20260830103523 71 203 10.0 16.0 0.00 0.57 0.01 68 1009.8
20260830102525 72 203 8.0 15.0 0.00 0.59 0.01 66 1009.8